{"data":{"norad_id":59843,"intl_designator":"2024-097J","name":"STARLINK-31857","alt_names":[],"object_type":"PAYLOAD","status":"ACTIVE","operator":null,"country":"US","launch_date":"2024-05-23","launch_site_code":"AFETR","launch_vehicle":null,"mission":null,"orbit_class":"UNKNOWN","rcs_meters":null,"size_class":null,"mass_kg":null,"dimensions":null,"purposes":["comms"],"wikipedia_slug":null,"has_3d_model":false,"image_url":null,"decayed_at":null,"tle_current":{"epoch":"2026-09-21T16:05:37.636800Z","epoch_age_seconds":73366,"freshness":"FRESH","line1":"1 59843U 24097J   26264.67057450 -.00002249  00000+0 -72261-4 0  9995","line2":"2 59843  43.0044 247.2026 0001233 275.6249  84.4462 15.27557162131894","mean_motion":15.27557162,"eccentricity":0.0001233,"inclination_deg":43.0044,"raan_deg":247.2026,"arg_perigee_deg":275.6249,"mean_anomaly_deg":84.4462,"bstar":-7.2261e-5,"rev_number":13189,"period_min":94.268158064516,"perigee_km":482.27148940194,"apogee_km":483.96347475722,"semimajor_km":6861.2544820796,"source":"CELESTRAK","updated_at":"2026-09-22T09:00:49.096703Z"}}}